Regional Weather Roundup
Issued by NWS

Home | Current Version | Previous Version | Graphics & Text | Print | Product List | Glossary On
Versions: 1 2 3 4 5 6 7 8 9 10 11 12 13 14 15 16 17 18 19 20 21 22 23 24 25 26 27 28 29 30 31 32 33 34 35 36 37 38 39 40 41 42 43 44 45 46 47 48 49 50
000
ASUS43 KDMX 262306
RWRIA

WEATHER ROUNDUP FOR IOWA
NATIONAL WEATHER SERVICE DES MOINES IA
600 PM CDT MON JUN 26 2017

NOTE: "FAIR" INDICATES FEW OR NO CLOUDS BELOW 12,000 FEET WITH NO
SIGNIFICANT WEATHER AND/OR OBSTRUCTIONS TO VISIBILITY.

* - THESE STATIONS ARE NOT NWS STATIONS...THUS NOT UNDER NWS
QUALITY CONTROL.  THEY ALSO DO NOT REPORT WEATHER SUCH
AS PRECIPITATION OR FOG.

IAZ001>003-012>014-020>022-031>034-043>046-270000-
   NORTHWEST IOWA

CITY           SKY/WX    TMP DP  RH WIND       PRES   REMARKS
CARROLL *      SUNNY     72  41  33 N6        30.12F
CHEROKEE *     SUNNY     71  41  34 N8        30.14S
DENISON *      MOSUNNY   72  45  37 E8        30.14F
LE MARS *      SUNNY     72  39  30 N9        30.15S
ORANGE CITY *  SUNNY     72  41  33 NE3       30.15S
SHELDON *      SUNNY     70  39  32 CALM      30.13F
SIOUX CITY     SUNNY     74  42  31 NE6       30.13F
SPENCER        SUNNY     71  39  31 N9        30.15S
STORM LAKE *   SUNNY     70  37  30 CALM      30.14F
$$

IAZ055>058-069>071-079>083-090>094-270000-
   SOUTHWEST IOWA

CITY           SKY/WX    TMP DP  RH WIND       PRES   REMARKS
ATLANTIC *     PTSUNNY   73  50  43 VRB7G13   30.11S
AUDUBON *      MOSUNNY   73  46  38 N8        30.13F
CLARINDA *     CLOUDY    72  59  64 SW5       30.13S
COUNCIL BLFS * SUNNY     73  52  46 VRB5      30.11S
CRESTON *      MOSUNNY   73  50  43 N8G15     30.12S
HARLAN  *      SUNNY     73  48  40 NE10      30.15S
LAMONI         PTSUNNY   73  55  53 W9        30.10F
RED OAK *      MOSUNNY   73  55  53 NE9       30.11S
SHENANDOAH *   PTSUNNY   73  61  64 VRB7      30.11S
$$

IAZ047>049-059>061-072>074-084-270000-
   CENTRAL IOWA

CITY           SKY/WX    TMP DP  RH WIND       PRES   REMARKS
AMES           SUNNY     70  42  36 NW10      30.11S
ANKENY *       SUNNY     70  43  37 NW10      30.11S
BOONE *        MOSUNNY   70  43  37 N9        30.11S
CHARITON *     MOSUNNY   72  50  46 N9        30.10S
DES MOINES     MOSUNNY   74  46  36 NE12      30.10S
GRINNELL*      SUNNY     72  40  31 NW12      30.10S
KNOXVILLE *    PTSUNNY   72  50  46 N10       30.08F
MARSHALLTOWN   SUNNY     71  40  32 NW12      30.10S
NEWTON *       MOSUNNY   72  43  35 N10       30.10S
PELLA *        SUNNY     75  47  37 N8        30.10F
PERRY *          N/A     73  41  32 N6        30.11F
$$

IAZ004>006-015-016-023>025-035-036-270000-
   NORTH CENTRAL IOWA

CITY           SKY/WX    TMP DP  RH WIND       PRES   REMARKS
ALGONA *       SUNNY     70  37  30 NE12      30.14S
CLARION *        N/A     70  39  32 N9        30.12F
ESTHERVILLE    SUNNY     68  41  37 N8G17     30.14F
FORT DODGE *   SUNNY     70  39  32 N6        30.14S
MASON CITY     PTSUNNY   70  39  32 NW10G22   30.14S
FOREST CITY *    N/A     70  25  18 N6        30.13S
WEBSTER CITY * SUNNY     72  41  33 N7G14     30.11S
IOWA FALLS *     N/A     71  40  32 NW7       30.12S
$$

IAZ007>011-017>019-026>030-037>042-050>054-066-270000-
   NORTHEAST IOWA

CITY           SKY/WX    TMP DP  RH WIND       PRES   REMARKS
CEDAR RAPIDS   MOSUNNY   71  44  37 N12       30.08F
CHARLES CITY * MOSUNNY   66  39  37 N8G16     30.12S
CLINTON *      PTSUNNY   70  44  39 N14       30.08R
DECORAH *      MOSUNNY   66  43  42 N9G16     30.09S
DUBUQUE        SUNNY     67  42  40 N9        30.09S
MONTICELLO *   MOSUNNY   70  45  40 N13       30.08S
OELWEIN *      SUNNY     68  43  40 N12G18    30.11S
WATERLOO       SUNNY     70  41  34 N14       30.09S
$$

IAZ064-065-067-068-078-270000-
   EAST CENTRAL IOWA

CITY           SKY/WX    TMP DP  RH WIND       PRES   REMARKS
DAVENPORT      SUNNY     71  44  37 N15G21    30.07S
IOWA CITY      SUNNY     74  42  31 N13       30.09S
MT. PLEASANT * CLOUDY    70  47  43 NW3       30.09F
MUSCATINE *    PTSUNNY   73  46  38 NW13      30.07F
QUAD CITIES    MOSUNNY   73  42  32 NW12      30.06S
$$

IAZ062-063-075>077-085>089-095>099-270000-
   SOUTHEAST IOWA

CITY           SKY/WX    TMP DP  RH WIND       PRES   REMARKS
BURLINGTON     RAIN      62  50  64 N9G23     30.09R
FAIRFIELD *    PTSUNNY   73  50  43 NW12      30.08S
FORT MADISON * MOSUNNY   73  54  49 W8        30.09S
KEOKUK *       PTSUNNY   72  52  49 W6        30.07F
OSKALOOSA *    PTSUNNY   73  52  46 N9        30.09F
CENTERVILLE *    N/A     73  52  46 CALM      30.11S
OTTUMWA        MOSUNNY   73  51  46 NW12      30.08F
WASHINGTON *   MOSUNNY   70  54  56 NW7       30.09F
$$

ABBREVIATIONS USED IN REMARKS
   TC - TEMPERATURES IN CELSIUS
  WCI - WIND CHILL INDEX
   HX - HEAT INDEX
  VSB - VISIBILITY
$$





USA.gov is the U.S. government's official web portal to all federal, state and local government web resources and services.